Check out our new BloomSky Weather System.

Active alerts

Houston, TX
  Details for Houston, TX Dense Fog Advisory


Thunder radar  blitzortung!


Rain radar more information rain snow radar


Visit our other weather sites:

Template documentation
and downloads

And another site



Weather Underground History page Text

Daily Summary for March 12, 2017 Units:  Metric    English   Both
« Previous Day
Next Day »
Daily Weekly Monthly Yearly Custom
  High: Low: Average:
Temperature: 17.9 °C 8.7 °C 12.4 °C
Dew Point: 17.6 °C 7.3 °C 10.3 °C
Humidity: 98 % 74 % 87 %
Wind Speed: 20.9 km/h 0 km/h 4.3 km/h
Wind Gust: 25.7 km/h - -
Wind:- - SW
Pressure: 1023.6 hPa 1018.8 hPa -
Precipitation: 1.02 mm    
Historical Graphs
 
 
Tabular Data for March 12, 2017
Time Temperature Dew Point Pressure Wind Wind Speed Wind Gust Humidity Rainfall Rate (Hourly)
00:04 17.9 °C 17.6 °C 1018.8 hPa NNE 9.7 km/h 9.7 km/h 98 % 2.03 mm
00:09 17.8 °C 17.5 °C 1018.8 hPa SW 9.7 km/h 9.7 km/h 98 % 2.29 mm
00:14 17.7 °C 17.4 °C 1018.8 hPa Calm   17.7 km/h 98 % 2.79 mm
00:19 17.7 °C 17.4 °C 1019.2 hPa WSW 4.8 km/h 17.7 km/h 98 % 3.05 mm
00:24 17.5 °C 17.2 °C 1019.2 hPa NE 11.3 km/h 17.7 km/h 98 % 3.05 mm
00:29 17.2 °C 16.7 °C 1019.2 hPa North 3.2 km/h 17.7 km/h 97 % 3.05 mm
00:34 16.8 °C 16.3 °C 1019.2 hPa NW 8 km/h 17.7 km/h 97 % 2.79 mm
00:39 16.6 °C 16.1 °C 1019.5 hPa NNW 8 km/h 19.3 km/h 97 % 2.79 mm
00:44 16.3 °C 15.8 °C 1019.5 hPa North 8 km/h 19.3 km/h 97 % 2.54 mm
00:49 16.1 °C 15.6 °C 1019.5 hPa North 9.7 km/h 19.3 km/h 97 % 1.27 mm
00:54 15.7 °C 15.1 °C 1019.9 hPa NW 6.4 km/h 17.7 km/h 96 % 1.02 mm
00:59 15.4 °C 14.9 °C 1019.9 hPa NW 11.3 km/h 17.7 km/h 97 % 1.02 mm
01:04 15.1 °C 14.5 °C 1019.9 hPa North 11.3 km/h 17.7 km/h 96 % 1.02 mm
01:09 14.9 °C 14.3 °C 1019.9 hPa NW 9.7 km/h 20.9 km/h 96 % 0.76 mm
01:14 14.8 °C 14.2 °C 1019.9 hPa WNW 4.8 km/h 20.9 km/h 96 % 0.25 mm
01:20 14.6 °C 14 °C 1019.9 hPa North 8 km/h 20.9 km/h 96 % 0 mm
01:25 14.5 °C 13.9 °C 1019.5 hPa NNW 8 km/h 20.9 km/h 96 % 0 mm
01:30 14.3 °C 13.7 °C 1019.5 hPa North 9.7 km/h 20.9 km/h 96 % 0 mm
01:35 14.1 °C 13.5 °C 1019.5 hPa North 9.7 km/h 19.3 km/h 96 % 0 mm
01:40 14 °C 13.4 °C 1019.5 hPa Calm   22.5 km/h 96 % 0 mm
01:45 14 °C 13.4 °C 1019.5 hPa NNW 3.2 km/h 22.5 km/h 96 % 0 mm
01:50 13.9 °C 13.3 °C 1019.5 hPa North 8 km/h 22.5 km/h 96 % 0 mm
01:55 13.9 °C 13.3 °C 1019.9 hPa NNW 8 km/h 17.7 km/h 96 % 0 mm
03:00 13.7 °C 13.1 °C 1019.5 hPa NW 3.2 km/h -1607.7 km/h 96 % 0 mm
03:05 13.6 °C 13 °C 1019.5 hPa NNW 4.8 km/h -1607.7 km/h 96 % 0 mm
03:10 13.5 °C 12.9 °C 1019.5 hPa East 3.2 km/h -1607.7 km/h 96 % 0 mm
03:15 13.4 °C 12.8 °C 1019.2 hPa West 8 km/h -1607.7 km/h 96 % 0 mm
03:20 13.2 °C 12.6 °C 1019.2 hPa NNE 3.2 km/h -1607.7 km/h 96 % 0 mm
03:25 13.1 °C 12.3 °C 1019.2 hPa NNE 4.8 km/h -1607.7 km/h 95 % 0 mm
03:30 13 °C 12.4 °C 1019.5 hPa Calm   -1607.7 km/h 96 % 0 mm
03:35 12.9 °C 12.3 °C 1019.5 hPa NE 8 km/h -1607.7 km/h 96 % 0 mm
03:40 12.8 °C 12 °C 1019.5 hPa NNW 3.2 km/h -1607.7 km/h 95 % 0 mm
03:45 12.8 °C 12 °C 1019.5 hPa WNW 6.4 km/h -1607.7 km/h 95 % 0 mm
03:50 12.6 °C 11.8 °C 1019.5 hPa NE 20.9 km/h -1607.7 km/h 95 % 0 mm
03:55 12.5 °C 11.7 °C 1019.5 hPa NNE 6.4 km/h -1607.7 km/h 95 % 0 mm
04:00 12.5 °C 11.7 °C 1019.9 hPa NNW 6.4 km/h -1607.7 km/h 95 % 0 mm
04:05 12.5 °C 11.7 °C 1019.9 hPa WNW 6.4 km/h -1607.7 km/h 95 % 0 mm
04:10 12.2 °C 11.3 °C 1019.9 hPa North 14.5 km/h -1607.7 km/h 94 % 0 mm
04:15 11.9 °C 11 °C 1019.9 hPa NW 9.7 km/h -1607.7 km/h 94 % 0 mm
04:20 11.7 °C 10.8 °C 1020.2 hPa NNE 8 km/h -1607.7 km/h 94 % 0 mm
04:25 11.4 °C 10.5 °C 1020.2 hPa NW 14.5 km/h -1607.7 km/h 94 % 0 mm
04:30 11.3 °C 10.4 °C 1020.2 hPa NNW 4.8 km/h -1607.7 km/h 94 % 0 mm
04:35 11.2 °C 10.3 °C 1020.2 hPa North 4.8 km/h -1607.7 km/h 94 % 0 mm
04:40 11.2 °C 10.4 °C 1020.2 hPa West 1.6 km/h -1607.7 km/h 95 % 0 mm
04:45 11.2 °C 10.3 °C 1020.2 hPa NNE 3.2 km/h -1607.7 km/h 94 % 0 mm
04:50 11.1 °C 10.2 °C 1020.5 hPa North 11.3 km/h -1607.7 km/h 94 % 0 mm
04:55 10.9 °C 10 °C 1020.5 hPa NNW 8 km/h -1607.7 km/h 94 % 0 mm
05:00 10.8 °C 9.9 °C 1020.5 hPa WNW 3.2 km/h -1607.7 km/h 94 % 0 mm
05:05 10.7 °C 9.8 °C 1020.5 hPa North 8 km/h -1607.7 km/h 94 % 0 mm
05:10 10.7 °C 9.8 °C 1020.5 hPa NNE 6.4 km/h -1607.7 km/h 94 % 0 mm
05:15 10.6 °C 9.7 °C 1020.5 hPa NNW 9.7 km/h -1607.7 km/h 94 % 0 mm
05:20 10.5 °C 9.6 °C 1020.5 hPa North 9.7 km/h -1607.7 km/h 94 % 0 mm
05:25 10.4 °C 9.5 °C 1020.5 hPa NNW 8 km/h -1607.7 km/h 94 % 0 mm
05:30 10.4 °C 9.5 °C 1020.9 hPa WNW 3.2 km/h -1607.7 km/h 94 % 0 mm
05:35 10.3 °C 9.4 °C 1020.9 hPa NW 3.2 km/h -1607.7 km/h 94 % 0 mm
05:40 10.2 °C 9.3 °C 1020.9 hPa WNW 11.3 km/h -1607.7 km/h 94 % 0 mm
05:45 10.2 °C 9.3 °C 1020.9 hPa NW 4.8 km/h -1607.7 km/h 94 % 0 mm
05:50 10.1 °C 9.2 °C 1020.9 hPa NW 4.8 km/h -1607.7 km/h 94 % 0 mm
05:56 10.1 °C 9.2 °C 1020.9 hPa WNW 6.4 km/h -1607.7 km/h 94 % 0 mm
06:01 10.1 °C 9.2 °C 1020.9 hPa North 4.8 km/h -1607.7 km/h 94 % 0 mm
06:06 10 °C 9.1 °C 1021.2 hPa NE 8 km/h -1607.7 km/h 94 % 0 mm
06:11 10 °C 9.1 °C 1021.2 hPa NW 6.4 km/h -1607.7 km/h 94 % 0 mm
06:16 10.1 °C 9.2 °C 1021.6 hPa East 3.2 km/h -1607.7 km/h 94 % 0 mm
06:21 10.1 °C 9.2 °C 1021.2 hPa NNW 6.4 km/h -1607.7 km/h 94 % 0 mm
06:26 10 °C 9.1 °C 1021.6 hPa ENE 1.6 km/h -1607.7 km/h 94 % 0 mm
06:31 10 °C 9.1 °C 1021.6 hPa WNW 6.4 km/h -1607.7 km/h 94 % 0 mm
06:36 9.9 °C 8.8 °C 1021.6 hPa NNW 6.4 km/h -1607.7 km/h 93 % 0 mm
06:41 9.8 °C 8.7 °C 1021.6 hPa NNW 6.4 km/h -1607.7 km/h 93 % 0 mm
06:46 9.8 °C 8.7 °C 1021.6 hPa NNW 11.3 km/h -1607.7 km/h 93 % 0 mm
06:51 9.8 °C 8.7 °C 1021.6 hPa NNW 1.6 km/h -1607.7 km/h 93 % 0 mm
06:56 9.9 °C 8.8 °C 1021.6 hPa NNE 3.2 km/h -1607.7 km/h 93 % 0 mm
07:01 9.8 °C 8.7 °C 1021.6 hPa NNE 9.7 km/h -1607.7 km/h 93 % 0 mm
07:06 9.8 °C 8.7 °C 1021.9 hPa West 6.4 km/h -1607.7 km/h 93 % 0 mm
07:11 9.8 °C 8.7 °C 1021.9 hPa North 1.6 km/h -1607.7 km/h 93 % 0 mm
07:16 9.8 °C 8.7 °C 1022.2 hPa NNW 1.6 km/h -1607.7 km/h 93 % 0 mm
07:21 9.8 °C 8.7 °C 1022.2 hPa NNW 8 km/h -1607.7 km/h 93 % 0 mm
07:26 9.7 °C 8.6 °C 1022.2 hPa Calm   -1607.7 km/h 93 % 0 mm
07:31 9.7 °C 8.6 °C 1022.2 hPa WNW 8 km/h -1607.7 km/h 93 % 0 mm
07:36 9.6 °C 8.5 °C 1022.6 hPa North 6.4 km/h -1607.7 km/h 93 % 0 mm
07:41 9.5 °C 8.4 °C 1022.6 hPa NE 11.3 km/h -1607.7 km/h 93 % 0 mm
07:46 9.4 °C 8.3 °C 1022.6 hPa NW 6.4 km/h -1607.7 km/h 93 % 0 mm
07:51 9.3 °C 8.2 °C 1022.6 hPa North 8 km/h -1607.7 km/h 93 % 0 mm
07:56 9.3 °C 8.2 °C 1022.6 hPa NNW 11.3 km/h -1607.7 km/h 93 % 0 mm
08:01 9.3 °C 8.2 °C 1022.6 hPa NNE 8 km/h -1607.7 km/h 93 % 0 mm
08:06 9.3 °C 8.2 °C 1022.6 hPa NW 9.7 km/h -1607.7 km/h 93 % 0 mm
08:11 9.2 °C 8.1 °C 1022.6 hPa WNW 11.3 km/h -1607.7 km/h 93 % 0 mm
08:16 9.2 °C 8.1 °C 1022.6 hPa NW 8 km/h 24.1 km/h 93 % 0 mm
08:21 9.2 °C 8 °C 1022.6 hPa WNW 3.2 km/h 22.5 km/h 92 % 0 mm
08:26 9.1 °C 7.9 °C 1022.9 hPa NNE 9.7 km/h 22.5 km/h 92 % 0 mm
08:31 9.1 °C 7.9 °C 1022.9 hPa NNW 16.1 km/h 20.9 km/h 92 % 0 mm
08:36 9.1 °C 7.9 °C 1022.9 hPa Calm   20.9 km/h 92 % 0 mm
08:41 9.1 °C 7.9 °C 1022.9 hPa SW 1.6 km/h 17.7 km/h 92 % 0 mm
08:46 9.1 °C 7.9 °C 1023.2 hPa NW 6.4 km/h 17.7 km/h 92 % 0 mm
08:51 9.1 °C 7.9 °C 1023.2 hPa Calm   14.5 km/h 92 % 0 mm
08:56 9.1 °C 7.9 °C 1023.2 hPa NW 6.4 km/h 14.5 km/h 92 % 0 mm
09:01 9 °C 7.8 °C 1023.2 hPa North 6.4 km/h 22.5 km/h 92 % 0 mm
09:06 8.9 °C 7.7 °C 1023.2 hPa North 9.7 km/h 25.7 km/h 92 % 0 mm
09:11 8.8 °C 7.4 °C 1023.2 hPa WNW 4.8 km/h 25.7 km/h 91 % 0 mm
09:16 8.8 °C 7.4 °C 1023.2 hPa WNW 4.8 km/h 25.7 km/h 91 % 0 mm
09:21 8.8 °C 7.6 °C 1023.2 hPa NNE 9.7 km/h 22.5 km/h 92 % 0 mm
09:26 8.9 °C 7.5 °C 1023.2 hPa NNW 3.2 km/h 22.5 km/h 91 % 0 mm
09:31 8.8 °C 7.4 °C 1023.2 hPa NW 6.4 km/h 12.9 km/h 91 % 0 mm
09:36 8.9 °C 7.7 °C 1023.6 hPa North 3.2 km/h 16.1 km/h 92 % 0 mm
09:41 8.8 °C 7.4 °C 1023.6 hPa NW 6.4 km/h 22.5 km/h 91 % 0 mm
09:46 8.8 °C 7.4 °C 1023.6 hPa North 8 km/h 22.5 km/h 91 % 0 mm
09:52 8.7 °C 7.3 °C 1023.6 hPa South 3.2 km/h 22.5 km/h 91 % 0 mm
09:58 8.7 °C 7.3 °C 1023.6 hPa NNE 3.2 km/h 22.5 km/h 91 % 0 mm
12:32 9.3 °C 7.6 °C 1023.2 hPa WNW 6.4 km/h 11.3 km/h 89 % 0 mm
12:37 9.5 °C 7.9 °C 1023.2 hPa NE 6.4 km/h 14.5 km/h 90 % 0 mm
12:42 9.7 °C 8.1 °C 1023.2 hPa WSW 3.2 km/h 14.5 km/h 90 % 0 mm
12:45 9.8 °C 8.1 °C 1023.2 hPa North 1.6 km/h 14.5 km/h 89 % 0 mm
12:46 9.8 °C 8.1 °C 1023.2 hPa East 6.4 km/h 14.5 km/h 89 % 0 mm
12:51 9.8 °C 7.9 °C 1023.2 hPa NNE 1.6 km/h 12.9 km/h 88 % 0 mm
12:56 9.9 °C 8 °C 1022.9 hPa Calm   14.5 km/h 88 % 0 mm
13:01 10.1 °C 8.2 °C 1022.9 hPa NE 4.8 km/h 14.5 km/h 88 % 0 mm
13:07 10.2 °C 8.1 °C 1022.9 hPa NNE 4.8 km/h 14.5 km/h 87 % 0 mm
13:12 10.2 °C 8.1 °C 1022.6 hPa NNW 4.8 km/h 16.1 km/h 87 % 0 mm
13:17 10.3 °C 8.2 °C 1022.6 hPa SSW 3.2 km/h 16.1 km/h 87 % 0 mm
13:22 10.6 °C 8.5 °C 1022.6 hPa ENE 1.6 km/h 16.1 km/h 87 % 0 mm
13:27 10.8 °C 8.6 °C 1022.2 hPa NW 1.6 km/h 16.1 km/h 86 % 0 mm
13:32 11 °C 8.7 °C 1022.2 hPa ENE 6.4 km/h 12.9 km/h 86 % 0 mm
13:37 11.2 °C 8.9 °C 1022.2 hPa North 1.6 km/h 14.5 km/h 86 % 0 mm
13:42 11.5 °C 9.1 °C 1022.2 hPa North 6.4 km/h 14.5 km/h 85 % 0 mm
13:47 11.6 °C 9 °C 1022.2 hPa NNW 9.7 km/h 14.5 km/h 84 % 0 mm
13:52 11.7 °C 8.9 °C 1022.2 hPa WNW 1.6 km/h 14.5 km/h 83 % 0 mm
13:57 11.9 °C 9.1 °C 1022.2 hPa NNW 8 km/h 14.5 km/h 83 % 0 mm
14:02 12.1 °C 9.3 °C 1022.2 hPa ENE 4.8 km/h 14.5 km/h 83 % 0 mm
14:07 12.2 °C 9.2 °C 1021.9 hPa NW 3.2 km/h 12.9 km/h 82 % 0 mm
14:12 12.3 °C 9.3 °C 1021.9 hPa ESE 3.2 km/h 12.9 km/h 82 % 0 mm
14:17 12.6 °C 9.6 °C 1021.9 hPa NW 3.2 km/h 9.7 km/h 82 % 0 mm
14:22 12.7 °C 9.3 °C 1021.9 hPa ESE 1.6 km/h 9.7 km/h 80 % 0 mm
14:27 12.6 °C 9.2 °C 1021.9 hPa North 1.6 km/h 12.9 km/h 80 % 0 mm
14:32 12.6 °C 9.4 °C 1021.6 hPa ENE 1.6 km/h 12.9 km/h 81 % 0 mm
14:37 12.9 °C 9.7 °C 1021.6 hPa NNW 3.2 km/h 12.9 km/h 81 % 0 mm
14:42 12.9 °C 9.5 °C 1021.6 hPa WNW 1.6 km/h 11.3 km/h 80 % 0 mm
14:47 12.9 °C 9.3 °C 1021.6 hPa ENE 6.4 km/h 11.3 km/h 79 % 0 mm
14:52 12.9 °C 9.5 °C 1021.6 hPa NW 4.8 km/h 11.3 km/h 80 % 0 mm
14:57 13.1 °C 9.7 °C 1021.2 hPa ENE 9.7 km/h 11.3 km/h 80 % 0 mm
15:02 13.3 °C 9.7 °C 1021.2 hPa NE 3.2 km/h 11.3 km/h 79 % 0 mm
15:07 13.4 °C 9.8 °C 1020.9 hPa ENE 8 km/h 11.3 km/h 79 % 0 mm
15:12 13.7 °C 10.1 °C 1020.9 hPa North 4.8 km/h 11.3 km/h 79 % 0 mm
15:17 13.9 °C 10.3 °C 1020.5 hPa East 1.6 km/h 11.3 km/h 79 % 0 mm
15:22 14.2 °C 10.2 °C 1020.5 hPa North 6.4 km/h 11.3 km/h 77 % 0 mm
15:27 14.1 °C 9.9 °C 1020.5 hPa NW 9.7 km/h 14.5 km/h 76 % 0 mm
15:33 14.1 °C 10.3 °C 1020.5 hPa North 9.7 km/h 14.5 km/h 78 % 0 mm
15:38 14.2 °C 10.2 °C 1020.5 hPa NE 3.2 km/h 14.5 km/h 77 % 0 mm
15:43 14.1 °C 9.9 °C 1020.5 hPa NNW 1.6 km/h 14.5 km/h 76 % 0 mm
15:48 14.2 °C 10.2 °C 1020.5 hPa NW 3.2 km/h 14.5 km/h 77 % 0 mm
15:53 14.2 °C 10 °C 1020.5 hPa NW 3.2 km/h 16.1 km/h 76 % 0 mm
15:58 14.2 °C 10 °C 1020.5 hPa ENE 6.4 km/h 16.1 km/h 76 % 0 mm
16:03 14.4 °C 10.4 °C 1020.5 hPa Calm   16.1 km/h 77 % 0 mm
16:08 14.6 °C 10.6 °C 1020.5 hPa East 1.6 km/h 11.3 km/h 77 % 0 mm
16:13 14.6 °C 10.2 °C 1020.5 hPa NW 8 km/h 9.7 km/h 75 % 0 mm
16:18 14.5 °C 10.1 °C 1020.5 hPa NW 6.4 km/h 12.9 km/h 75 % 0 mm
16:23 14.6 °C 10.6 °C 1020.5 hPa ENE 1.6 km/h 12.9 km/h 77 % 0 mm
16:28 14.8 °C 10.8 °C 1020.5 hPa NNW 1.6 km/h 12.9 km/h 77 % 0 mm
16:33 14.7 °C 10.5 °C 1020.5 hPa North 9.7 km/h 11.3 km/h 76 % 0 mm
16:38 14.8 °C 10.6 °C 1020.5 hPa NE 4.8 km/h 11.3 km/h 76 % 0 mm
16:43 14.8 °C 10.6 °C 1020.2 hPa NW 8 km/h 11.3 km/h 76 % 0 mm
16:48 14.9 °C 10.5 °C 1020.2 hPa WNW 4.8 km/h 11.3 km/h 75 % 0 mm
16:53 15 °C 10.4 °C 1020.2 hPa NW 4.8 km/h 11.3 km/h 74 % 0 mm
16:58 14.9 °C 10.5 °C 1020.2 hPa NNW 8 km/h 11.3 km/h 75 % 0 mm
17:03 14.7 °C 10.3 °C 1020.2 hPa NNW 3.2 km/h 11.3 km/h 75 % 0 mm
17:08 14.7 °C 10.3 °C 1020.2 hPa NW 4.8 km/h 9.7 km/h 75 % 0 mm
17:13 14.7 °C 10.5 °C 1019.9 hPa Calm   9.7 km/h 76 % 0 mm
17:18 14.8 °C 10.4 °C 1019.9 hPa West 3.2 km/h 8 km/h 75 % 0 mm
17:23 15 °C 10.6 °C 1019.9 hPa WNW 11.3 km/h 12.9 km/h 75 % 0 mm
17:28 15 °C 10.4 °C 1019.9 hPa NW 6.4 km/h 12.9 km/h 74 % 0 mm
17:33 14.9 °C 10.5 °C 1019.5 hPa NNW 6.4 km/h 12.9 km/h 75 % 0 mm
17:38 15.1 °C 10.7 °C 1019.5 hPa NW 6.4 km/h 12.9 km/h 75 % 0 mm
17:43 14.9 °C 10.5 °C 1019.2 hPa North 1.6 km/h 12.9 km/h 75 % 0 mm
17:48 15.1 °C 10.9 °C 1019.2 hPa NW 4.8 km/h 8 km/h 76 % 0 mm
17:49 15.1 °C 10.9 °C 1019.2 hPa NNE 3.2 km/h 8 km/h 76 % 0 mm
17:53 15.3 °C 10.9 °C 1019.2 hPa NW 6.4 km/h 8 km/h 75 % 0 mm
17:58 15.3 °C 10.7 °C 1019.2 hPa WNW 3.2 km/h 9.7 km/h 74 % 0 mm
18:01 15.3 °C 10.7 °C 1019.2 hPa North 9.7 km/h 9.7 km/h 74 % 0 mm
18:06 15.3 °C 10.7 °C 1019.2 hPa NW 4.8 km/h 9.7 km/h 74 % 0 mm
18:11 15.2 °C 10.8 °C 1019.2 hPa NW 4.8 km/h 9.7 km/h 75 % 0 mm
18:16 15.1 °C 10.7 °C 1019.2 hPa NNW 3.2 km/h 9.7 km/h 75 % 0 mm
18:21 15.1 °C 10.7 °C 1019.2 hPa NNW 4.8 km/h 9.7 km/h 75 % 0 mm
18:26 14.9 °C 10.7 °C 1019.2 hPa NNW 1.6 km/h 9.7 km/h 76 % 0 mm
18:31 15 °C 10.6 °C 1019.2 hPa Calm   9.7 km/h 75 % 0 mm
18:36 15 °C 10.6 °C 1019.2 hPa Calm   6.4 km/h 75 % 0 mm
18:41 15 °C 10.6 °C 1019.2 hPa Calm   4.8 km/h 75 % 0 mm
18:46 15 °C 10.8 °C 1019.2 hPa NW 1.6 km/h 6.4 km/h 76 % 0 mm
18:51 14.9 °C 10.7 °C 1019.2 hPa NW 1.6 km/h 6.4 km/h 76 % 0 mm
18:56 14.8 °C 10.8 °C 1019.2 hPa Calm   6.4 km/h 77 % 0 mm
18:58 14.8 °C 10.8 °C 1019.2 hPa Calm   6.4 km/h 77 % 0 mm
19:03 14.7 °C 10.7 °C 1019.5 hPa WNW 1.6 km/h 6.4 km/h 77 % 0 mm
19:08 14.6 °C 10.8 °C 1019.5 hPa Calm   6.4 km/h 78 % 0 mm
19:13 14.5 °C 10.7 °C 1019.5 hPa Calm   3.2 km/h 78 % 0 mm
19:18 14.4 °C 10.6 °C 1019.5 hPa Calm   1.6 km/h 78 % 0 mm
19:23 14.3 °C 10.5 °C 1019.5 hPa Calm   1.6 km/h 78 % 0 mm
19:28 14.2 °C 10.6 °C 1019.5 hPa Calm   1.6 km/h 79 % 0 mm
19:33 14.1 °C 10.9 °C 1019.5 hPa SW 1.6 km/h 1.6 km/h 81 % 0 mm
19:38 13.9 °C 10.9 °C 1019.9 hPa Calm   3.2 km/h 82 % 0 mm
19:43 13.8 °C 10.8 °C 1019.9 hPa Calm   3.2 km/h 82 % 0 mm
19:48 13.7 °C 10.9 °C 1019.9 hPa Calm   3.2 km/h 83 % 0 mm
19:53 13.6 °C 10.8 °C 1019.9 hPa Calm   3.2 km/h 83 % 0 mm
19:58 13.4 °C 10.8 °C 1019.9 hPa Calm   4.8 km/h 84 % 0 mm
20:03 13.4 °C 10.8 °C 1019.9 hPa Calm   4.8 km/h 84 % 0 mm
20:08 13.3 °C 10.7 °C 1019.9 hPa Calm   4.8 km/h 84 % 0 mm
20:13 13.2 °C 10.7 °C 1019.9 hPa West 1.6 km/h 3.2 km/h 85 % 0 mm
20:18 13.1 °C 10.6 °C 1019.9 hPa Calm   3.2 km/h 85 % 0 mm
20:23 13.1 °C 10.6 °C 1019.9 hPa Calm   3.2 km/h 85 % 0 mm
20:28 13 °C 10.5 °C 1019.9 hPa Calm   3.2 km/h 85 % 0 mm
20:33 12.9 °C 10.6 °C 1019.9 hPa West 1.6 km/h 3.2 km/h 86 % 0 mm
20:38 12.9 °C 10.6 °C 1019.9 hPa WSW 1.6 km/h 3.2 km/h 86 % 0 mm
20:43 12.9 °C 10.6 °C 1019.9 hPa WNW 1.6 km/h 3.2 km/h 86 % 0 mm
20:48 12.9 °C 10.6 °C 1019.9 hPa Calm   4.8 km/h 86 % 0 mm
20:53 12.9 °C 10.6 °C 1019.9 hPa NW 1.6 km/h 4.8 km/h 86 % 0 mm
20:58 12.9 °C 10.6 °C 1019.9 hPa Calm   4.8 km/h 86 % 0 mm
21:03 12.9 °C 10.6 °C 1020.2 hPa Calm   4.8 km/h 86 % 0 mm
21:08 12.9 °C 10.6 °C 1020.2 hPa WSW 1.6 km/h 4.8 km/h 86 % 0 mm
21:13 12.9 °C 10.6 °C 1020.2 hPa Calm   4.8 km/h 86 % 0 mm
21:18 12.9 °C 10.6 °C 1020.2 hPa Calm   4.8 km/h 86 % 0 mm
21:23 12.9 °C 10.6 °C 1019.9 hPa NW 1.6 km/h 4.8 km/h 86 % 0 mm
21:28 12.9 °C 10.6 °C 1019.9 hPa Calm   4.8 km/h 86 % 0 mm
21:33 12.9 °C 10.6 °C 1020.2 hPa Calm   4.8 km/h 86 % 0 mm
21:38 12.9 °C 10.6 °C 1019.9 hPa NW 1.6 km/h 3.2 km/h 86 % 0 mm
21:43 12.9 °C 10.6 °C 1019.9 hPa Calm   4.8 km/h 86 % 0 mm
21:48 12.8 °C 10.5 °C 1019.9 hPa Calm   4.8 km/h 86 % 0 mm
21:53 12.8 °C 10.5 °C 1019.9 hPa NNW 1.6 km/h 4.8 km/h 86 % 0 mm
21:58 12.8 °C 10.5 °C 1019.9 hPa Calm   4.8 km/h 86 % 0 mm
22:03 12.8 °C 10.5 °C 1019.9 hPa WNW 1.6 km/h 4.8 km/h 86 % 0 mm
22:08 12.8 °C 10.5 °C 1019.9 hPa WNW 1.6 km/h 4.8 km/h 86 % 0 mm
22:13 12.8 °C 10.5 °C 1019.9 hPa WSW 1.6 km/h 4.8 km/h 86 % 0 mm
22:18 12.8 °C 10.5 °C 1019.5 hPa NNW 1.6 km/h 4.8 km/h 86 % 0 mm
22:23 12.7 °C 10.6 °C 1019.5 hPa NW 1.6 km/h 6.4 km/h 87 % 0 mm
22:28 12.7 °C 10.6 °C 1019.2 hPa NW 1.6 km/h 6.4 km/h 87 % 0 mm
22:33 12.6 °C 10.5 °C 1019.2 hPa NW 3.2 km/h 6.4 km/h 87 % 0 mm
22:38 12.5 °C 10.4 °C 1019.5 hPa NNW 3.2 km/h 4.8 km/h 87 % 0 mm
22:43 12.4 °C 10.5 °C 1019.5 hPa Calm   4.8 km/h 88 % 0 mm
22:48 12.3 °C 10.4 °C 1019.5 hPa Calm   4.8 km/h 88 % 0 mm
22:53 12.2 °C 10.3 °C 1019.2 hPa Calm   3.2 km/h 88 % 0 mm
22:59 12.2 °C 10.4 °C 1019.2 hPa Calm   3.2 km/h 89 % 0 mm
23:04 12.1 °C 10.3 °C 1019.2 hPa WNW 1.6 km/h 1.6 km/h 89 % 0 mm
23:09 12.1 °C 10.3 °C 1019.2 hPa Calm   3.2 km/h 89 % 0 mm
23:14 12 °C 10.2 °C 1019.2 hPa Calm   3.2 km/h 89 % 0 mm
23:19 11.9 °C 10.1 °C 1019.2 hPa Calm   3.2 km/h 89 % 0 mm
23:24 11.8 °C 10.2 °C 1019.2 hPa Calm   3.2 km/h 90 % 0 mm
23:29 11.8 °C 10.2 °C 1019.2 hPa Calm   3.2 km/h 90 % 0 mm
23:34 11.8 °C 10.2 °C 1018.8 hPa NW 1.6 km/h 3.2 km/h 90 % 0 mm
23:39 11.7 °C 10.1 °C 1018.8 hPa Calm   3.2 km/h 90 % 0 mm
23:44 11.7 °C 10.1 °C 1018.8 hPa NW 1.6 km/h 3.2 km/h 90 % 0 mm
23:49 11.7 °C 10.1 °C 1018.8 hPa Calm   3.2 km/h 90 % 0 mm
23:54 11.6 °C 10.2 °C 1018.8 hPa NW 1.6 km/h 1.6 km/h 91 % 0 mm
23:59 11.7 °C 10.3 °C 1018.8 hPa WNW 1.6 km/h 3.2 km/h 91 % 0 mm
Spring, Texas: Villages of Bridgestone
Compliments of Weather Underground - 2.5 mb

Script developed by  Jim McMurry - jmcmurry@mwt.net Adapted for the template by  Wim van der Kuil - Leuven-Template.eu

You find our weather info also at:

UK Metoffice

WeatherCloud

Weather Underground

Mid-South Weather Network

AWEKAS

Citizen Weather Observer Program (CWOP)

HAMweather, WeatherForYou, PWS Weather

Equipment we use:

Weather-station
Davis Vantage Vue

Weather-program
Meteohub

Weather-server
Debian 7.9 x86 (Guest)

Provider
DreamHost

Davis Vantage Vue

Meteohub

Debian 7.9 x86 (Guest)

DreamHost